Theta_e
348 349 350 350 352 352 351 352 351 350 349 349 349 348 348 347 346 347 347 347 345 345 346 346 345 345 345 345 344 343 344 344 344 344 345 345 345 345 346 345 345 345 346 345 344 339 338 337 337 338 340 340 339 345 344 344 344 344 343 343 345 342
347 348 349 349 350 351 352 351 352 351 350 350 348 347 348 348 347 349 348 346 347 347 346 346 347 347 347 345 345 344 345 345 345 345 345 344 344 345 345 344 345 345 344 344 339 344 343 337 335 337 338 337 344 344 346 345 345 342 343 344 345 345
346 348 348 349 350 351 351 351 351 350 349 348 348 348 347 347 347 347 346 346 346 347 347 346 348 348 350 346 346 345 346 346 345 345 344 343 344 345 344 344 344 343 341 338 346 344 343 343 345 340 342 346 346 345 345 346 346 346 344 344 345 343
347 348 348 348 350 349 349 350 349 349 348 348 348 346 346 347 346 346 346 347 347 347 347 348 346 348 348 348 347 343 343 343 342 343 341 345 344 344 343 342 342 341 344 345 346 343 342 344 345 347 347 345 345 345 346 346 343 344 346 343 342 341
347 348 347 347 348 347 348 348 347 347 346 346 345 345 345 346 346 346 346 347 346 347 347 348 348 349 348 348 346 347 345 345 346 347 343 348 348 346 348 346 348 347 347 346 345 346 346 345 346 346 346 346 346 348 346 347 346 344 345 346 344 343
346 347 347 347 346 347 348 346 346 346 345 345 345 344 344 345 346 346 347 347 347 347 347 347 347 347 346 347 346 344 344 344 345 346 347 347 347 348 348 347 348 346 347 347 347 347 347 346 345 345 345 346 345 346 345 346 345 346 346 345 345 344
345 346 346 347 346 346 345 346 346 345 343 344 344 343 343 345 347 348 347 348 346 345 346 346 345 345 344 345 344 345 343 344 344 345 347 347 348 348 347 347 347 347 346 345 345 346 345 346 347 343 344 342 343 344 345 343 344 344 345 345 344 342
345 345 345 346 346 345 345 345 345 344 344 343 344 343 343 344 347 348 347 348 347 346 346 345 345 344 343 344 344 343 343 343 343 345 345 345 347 346 346 346 347 345 344 344 343 344 343 343 343 344 342 341 341 344 344 343 344 344 345 345 343 339
345 344 344 345 344 344 344 344 344 343 343 344 344 343 344 345 347 347 348 348 347 346 346 345 345 344 343 342 342 342 343 343 344 344 345 344 345 346 346 345 346 344 344 344 343 343 341 341 342 342 340 339 341 342 343 343 343 342 342 342 340 335
344 344 344 343 343 343 343 342 343 344 344 346 344 344 345 346 346 346 346 347 347 346 346 345 346 345 343 342 342 342 343 342 342 343 345 345 345 346 345 345 344 342 340 341 341 341 340 339 337 339 339 339 340 340 340 339 337 338 337 338 337 334
344 344 343 342 342 343 344 342 343 344 344 345 344 345 345 346 345 346 346 346 346 347 346 346 346 345 343 342 342 342 341 343 343 342 343 344 346 346 346 344 342 341 339 338 338 338 337 338 337 336 338 337 338 337 334 332 330 330 330 330 332 332
343 343 343 342 342 342 342 343 344 344 345 345 345 345 345 345 345 345 346 346 347 347 346 346 345 344 344 342 342 341 342 343 342 342 342 343 344 345 342 340 340 339 340 339 337 337 338 337 335 334 335 334 333 331 327 326 325 325 325 326 327 329
342 343 342 342 342 342 343 343 343 344 344 344 345 344 343 343 344 345 346 346 347 347 347 345 344 345 344 343 342 342 341 341 341 341 342 342 342 342 341 339 338 339 337 338 336 336 334 336 334 333 332 330 328 324 324 323 323 323 322 323 323 325
342 343 343 343 344 343 344 345 344 344 344 344 344 343 342 342 344 345 346 346 347 347 346 345 344 343 343 342 342 342 341 339 339 341 342 342 340 340 337 336 336 334 333 334 333 333 333 333 331 330 328 326 325 323 322 320 320 320 320 320 321 322
342 343 344 344 345 344 343 343 342 343 343 342 342 341 341 342 343 344 345 345 346 346 345 344 344 344 343 342 341 340 338 338 339 340 338 339 338 336 336 333 333 332 332 331 330 329 331 332 329 327 326 325 322 321 320 319 319 318 317 319 319 319
342 343 344 344 344 342 341 341 341 341 340 341 339 340 341 342 343 344 344 343 344 344 344 344 344 343 342 341 339 338 337 337 337 336 336 336 336 334 333 330 329 330 329 327 327 326 330 329 327 325 324 322 320 319 317 318 318 317 317 317 316 317
340 341 342 342 340 339 340 340 341 339 339 338 338 338 339 341 342 342 343 343 343 343 342 342 342 341 340 339 336 335 334 335 335 334 334 334 332 332 332 328 327 326 326 325 323 324 328 328 325 323 321 320 318 317 316 316 316 316 316 315 315 314
340 340 340 339 338 339 339 338 338 337 337 337 338 339 340 341 340 341 342 342 341 341 340 339 339 338 337 335 335 334 333 334 333 333 332 332 331 331 330 330 326 325 324 324 322 324 326 327 324 320 318 317 316 314 313 314 314 315 314 314 313 313
337 338 337 337 337 337 337 337 337 336 336 336 337 339 339 338 338 340 340 340 339 338 337 336 336 336 336 333 333 332 332 332 332 331 331 330 330 329 328 327 325 323 323 321 321 323 326 325 322 319 316 315 315 313 312 312 312 311 312 313 313 312
336 336 336 336 336 335 336 335 333 333 333 333 333 334 335 336 336 336 337 337 336 336 335 334 334 335 335 334 332 331 331 331 330 330 329 329 328 326 326 325 324 322 322 320 320 322 326 325 321 319 316 315 313 312 311 310 311 311 311 311 312 312
334 334 334 334 334 334 332 332 333 332 329 330 330 331 331 332 332 333 333 333 333 333 334 333 332 333 333 330 329 329 329 328 328 327 326 325 326 325 324 323 321 321 321 319 317 320 323 325 321 317 317 316 316 315 312 310 309 309 309 309 310 310
333 334 334 334 334 334 335 334 333 331 330 329 329 327 327 329 329 329 329 330 330 330 331 330 330 330 330 329 329 327 328 326 325 324 323 323 323 323 323 322 321 317 318 316 314 316 318 322 321 319 316 316 317 316 315 312 308 307 308 308 309 309
333 332 333 334 334 334 336 337 334 332 330 327 327 327 327 327 327 326 327 326 325 324 325 326 326 326 325 327 328 327 325 324 323 322 321 320 321 321 321 320 320 318 314 315 314 315 317 318 319 322 323 320 316 315 315 312 312 308 306 307 307 307
332 332 333 335 336 336 336 337 335 332 330 327 323 324 324 325 325 323 322 323 322 322 322 324 324 324 325 326 326 324 323 322 321 321 321 319 319 318 319 319 319 317 318 312 310 310 314 315 317 319 313 314 313 314 306 305 308 309 308 305 305 306
332 333 334 335 334 334 332 330 327 325 325 323 323 323 323 321 322 322 320 320 320 321 322 323 323 323 324 323 323 323 322 321 320 320 320 318 317 317 317 317 318 317 317 313 309 310 310 313 312 314 316 311 308 303 300 304 307 304 308 302 303 303
332 333 333 334 333 332 330 327 324 321 321 322 320 321 322 319 319 319 317 319 320 321 322 322 321 322 322 322 321 321 321 319 319 319 318 317 317 316 316 315 315 315 314 315 313 309 306 309 310 310 310 310 312 305 302 302 308 299 306 305 304 303
333 333 333 333 332 333 330 329 327 327 327 325 323 321 321 320 319 317 319 318 319 321 321 320 321 321 321 320 320 320 320 319 318 317 317 317 315 315 314 314 314 314 313 313 314 309 308 306 306 307 306 307 307 308 309 307 300 304 300 302 303 302
334 332 333 333 333 333 332 330 329 328 328 325 321 318 318 316 317 318 317 318 319 319 319 320 320 320 320 319 319 318 319 318 316 316 315 314 314 314 314 314 314 313 312 311 311 309 307 307 303 302 307 305 304 305 305 305 306 300 298 299 298 303
332 332 333 333 333 334 332 330 326 323 321 320 319 318 317 318 317 318 317 317 318 317 318 319 319 319 319 318 318 317 317 317 316 314 314 313 313 313 313 312 311 310 309 308 308 308 306 304 305 304 304 304 304 302 303 303 304 303 299 300 297 298
331 332 333 332 332 331 330 326 323 322 319 318 318 317 318 316 317 317 316 316 316 317 317 317 318 318 317 317 317 317 316 316 315 314 313 313 312 311 311 310 309 309 308 307 307 306 305 304 304 305 305 305 304 304 304 303 302 302 302 301 296 296
331 332 333 331 331 331 330 326 323 321 320 318 317 317 317 316 316 316 315 315 315 316 317 316 316 317 317 316 316 317 316 315 315 314 313 312 311 309 309 308 308 308 307 306 305 305 305 305 304 304 304 303 302 301 300 299 300 301 301 299 298 297
330 333 333 332 331 330 329 326 323 321 320 319 319 318 317 315 316 315 315 315 315 315 315 315 315 315 315 316 316 314 314 313 313 313 312 311 311 310 309 308 307 306 306 306 306 305 305 304 303 303 303 303 302 302 302 301 301 301 300 299 300 299
329 331 332 332 330 329 327 325 324 322 321 320 320 319 318 316 316 315 315 314 315 314 314 313 313 313 314 315 314 314 313 312 312 312 311 310 310 309 308 306 306 305 305 305 304 304 302 303 303 302 301 303 302 302 301 303 303 302 302 302 300 298
329 330 331 331 330 328 327 324 324 323 321 319 319 318 317 315 316 315 315 315 315 314 313 313 313 313 314 314 314 314 313 312 311 311 310 310 309 308 307 304 305 304 304 304 304 303 302 303 303 303 303 301 302 301 302 303 302 302 301 300 298 298
329 330 330 330 329 327 324 323 324 323 321 319 317 315 314 315 314 313 314 314 315 314 313 313 312 313 314 314 314 313 313 312 311 311 310 309 308 307 307 305 305 305 304 305 304 303 302 302 301 301 303 302 301 301 302 301 302 301 301 300 299 299
329 330 330 329 328 327 324 324 322 321 320 318 316 315 313 313 313 314 315 314 314 314 313 313 313 313 314 314 313 312 312 311 310 309 308 307 306 306 306 305 304 304 303 304 303 302 302 302 302 302 302 302 301 300 302 301 302 301 300 301 300 300
327 328 328 328 326 325 324 322 321 320 319 318 315 314 313 312 313 314 315 314 313 313 314 313 313 313 313 313 312 312 311 310 310 309 308 307 306 306 305 305 304 304 303 304 303 302 302 301 301 301 301 301 300 300 301 302 301 301 301 301 301 300
Wind_Speed
11 12 11 11 9 10 11 12 11 11 11 10 9 8 8 8 7 7 8 8 7 6 6 5 4 5 5 5 5 6 6 7 6 6 5 4 4 4 4 4 3 2 2 2 3 1 2 2 2 2 3 2 2 1 1 2 2 2 2 3 2 3
11 12 11 9 8 8 9 11 9 9 9 9 8 8 6 6 5 5 6 5 5 4 4 5 5 5 4 4 5 6 6 6 6 5 5 4 4 5 5 5 4 3 2 1 1 0 1 2 2 3 2 4 2 2 1 1 2 2 3 2 3 4
10 11 10 9 8 8 9 8 9 8 7 7 7 6 5 5 4 4 3 3 3 3 3 3 3 3 5 5 5 5 6 5 5 7 6 5 5 5 6 5 5 4 2 2 2 2 2 3 3 1 0 3 3 3 2 2 1 2 3 4 3 5
10 11 9 7 7 8 7 6 7 6 6 6 6 5 4 4 4 3 2 2 2 2 2 2 2 4 4 3 3 4 5 4 4 4 7 2 2 5 3 5 5 2 3 2 2 2 3 3 3 4 4 4 4 4 3 3 3 3 3 4 6 9
10 10 10 8 7 7 7 5 6 6 6 6 5 5 4 3 3 2 1 1 1 1 1 1 1 2 2 3 3 2 3 3 3 2 3 2 2 2 2 4 4 3 4 3 3 3 3 3 3 3 4 4 4 4 4 4 4 3 4 4 9 13
10 9 9 8 7 7 7 6 6 5 5 5 5 5 4 3 3 2 1 0 0 1 1 1 1 2 3 2 3 3 3 3 3 2 1 2 1 1 2 3 3 4 3 3 3 3 4 3 3 3 3 4 4 4 4 4 4 4 4 5 10 16
9 9 10 7 7 7 6 5 5 5 5 5 4 5 4 3 2 1 1 1 1 1 1 2 2 2 3 3 3 3 3 3 2 2 1 1 1 2 2 3 4 4 3 4 4 4 4 4 4 3 4 4 4 4 4 4 4 4 5 6 11 18
9 9 8 7 8 7 6 5 4 5 5 5 4 4 4 3 1 1 2 2 2 1 1 2 2 2 3 3 3 3 3 3 2 2 2 2 2 3 3 3 3 4 4 4 4 4 4 4 4 4 4 4 4 4 4 5 5 5 5 6 9 16
10 10 8 7 8 6 6 4 4 5 5 5 3 3 3 3 2 1 2 2 1 1 2 2 2 3 2 3 3 3 2 3 3 3 2 2 2 3 3 3 3 3 3 3 3 3 3 4 4 4 4 5 5 5 5 5 5 6 6 7 8 13
10 10 8 8 7 6 6 5 5 5 4 5 3 3 3 2 2 2 2 2 2 2 2 1 3 3 3 3 3 3 3 3 3 2 2 2 2 2 2 3 3 3 4 3 4 4 3 4 5 5 4 5 5 6 6 6 7 7 7 7 7 10
10 9 8 8 7 6 6 6 5 4 5 4 4 3 2 2 2 3 3 3 3 3 3 2 2 3 3 3 3 3 3 3 3 3 2 2 2 3 3 4 4 3 4 4 4 4 3 4 4 5 5 6 6 6 7 7 7 7 7 7 6 7
9 9 9 8 7 7 7 6 5 4 4 4 4 3 3 2 3 3 3 3 3 3 3 3 4 3 3 4 4 4 3 3 3 3 3 2 2 3 3 4 5 4 4 4 4 4 4 4 5 5 6 7 7 7 7 7 7 8 8 8 7 7
10 10 10 9 8 7 6 6 5 5 4 4 3 3 3 3 3 3 2 3 3 4 4 4 4 4 5 4 4 4 4 4 4 3 2 3 3 2 3 3 4 3 3 3 4 4 4 5 6 6 6 7 7 8 7 7 7 7 8 8 7 7
10 11 10 8 7 7 6 5 5 4 4 4 3 4 4 3 3 3 2 2 3 4 5 5 5 5 5 5 4 4 4 4 3 3 3 2 3 3 4 4 4 3 4 3 4 4 4 5 6 6 7 8 7 7 6 7 7 7 7 8 7 8
10 9 8 9 8 7 6 6 5 5 4 4 4 4 4 4 4 3 3 2 3 5 5 6 6 5 5 5 5 5 4 3 3 3 3 3 3 3 4 5 4 3 3 4 4 5 5 5 6 7 7 6 7 7 7 7 7 8 8 8 8 8
8 9 8 8 7 7 7 6 6 6 5 5 5 5 4 4 4 3 3 4 4 6 6 7 6 6 5 4 4 4 3 3 3 3 3 3 3 4 4 5 5 4 3 4 4 5 4 6 7 7 7 7 7 7 7 7 8 8 8 8 8 9
10 9 9 9 8 8 7 7 6 6 6 6 5 5 5 4 4 4 4 4 5 6 7 6 6 5 5 5 4 4 4 3 3 3 3 3 4 3 3 4 4 4 3 2 3 5 5 6 7 7 7 8 8 7 7 7 7 7 7 9 9 8
9 9 8 8 8 8 7 8 7 6 6 6 6 6 6 5 5 5 5 6 6 6 5 6 6 5 5 5 5 4 4 3 3 2 3 3 4 3 3 3 4 4 4 3 3 4 5 6 7 7 8 8 8 8 7 7 7 7 7 8 8 8
10 9 9 9 9 9 8 8 7 7 7 7 6 5 6 6 5 6 6 5 5 5 5 6 6 5 5 5 4 4 4 3 2 2 2 3 3 4 4 4 4 4 4 5 4 4 4 7 7 8 8 9 9 9 8 7 7 7 7 8 8 7
8 9 9 8 9 9 8 7 8 7 7 6 6 6 6 7 5 5 5 5 5 5 6 5 5 5 5 4 4 4 4 3 3 2 3 4 3 4 4 5 6 4 4 5 6 4 4 7 9 10 10 9 9 9 10 9 9 8 7 8 7 7
9 8 4 4 4 8 9 7 7 8 7 6 7 7 6 4 4 5 5 6 6 5 6 6 5 4 5 4 4 4 3 3 3 3 3 4 4 4 4 5 5 5 5 5 6 5 3 4 8 8 7 8 8 8 9 10 11 9 9 7 7 7
8 10 9 9 8 8 8 9 8 7 7 7 8 6 5 4 5 5 6 6 6 6 6 6 4 4 4 3 4 4 4 4 3 4 4 4 5 4 4 4 3 5 6 6 6 6 3 1 6 5 7 6 5 5 7 9 11 10 9 8 7 8
10 12 10 11 10 9 9 8 9 8 9 6 4 3 5 5 5 6 6 6 6 5 5 5 5 4 4 4 4 4 4 3 4 3 4 4 4 5 4 5 4 3 4 5 6 6 6 5 1 2 2 5 4 5 4 6 8 9 9 8 7 8
6 8 10 11 9 9 9 9 9 9 7 6 7 6 7 6 6 7 7 6 6 5 5 5 5 5 4 4 4 5 4 4 4 4 4 4 5 6 5 4 4 3 2 5 6 8 8 7 3 2 4 1 2 2 5 5 5 5 6 9 8 8
9 9 8 9 11 11 11 9 8 8 8 9 6 6 7 5 4 5 5 5 5 5 5 5 5 5 5 5 5 4 5 5 5 5 4 5 5 6 5 5 4 3 3 5 6 5 7 8 9 6 2 3 3 2 3 4 4 5 4 6 9 8
14 12 10 11 13 12 12 13 10 9 8 8 7 5 7 7 4 4 5 5 6 5 5 6 5 5 6 5 6 5 5 6 6 5 5 6 6 6 6 6 5 4 5 4 5 6 7 8 9 11 11 8 5 4 2 2 4 4 3 5 6 7
11 10 11 12 13 12 12 11 13 10 8 8 8 3 5 5 5 4 4 6 5 5 6 6 6 6 6 6 6 6 6 6 6 6 6 6 6 6 5 5 4 5 3 2 1 6 7 6 7 10 10 10 10 8 6 2 4 3 4 4 5 5
10 11 12 12 14 12 11 10 8 8 6 5 5 7 6 6 5 5 5 6 5 5 5 6 6 6 6 7 6 6 6 6 7 6 6 7 6 5 6 6 6 6 5 5 5 5 6 5 6 6 6 8 9 9 8 9 6 4 2 2 4 4
11 11 12 14 12 11 10 8 9 10 8 5 7 7 7 6 6 5 7 5 6 6 6 6 6 6 7 7 6 6 6 7 7 7 7 7 7 7 8 7 6 6 6 6 6 6 7 6 6 5 4 5 5 6 7 7 5 5 5 2 4 5
12 11 11 13 12 13 11 11 9 9 11 7 5 7 7 7 6 5 6 6 5 5 5 6 6 7 7 8 7 7 7 8 7 7 7 8 8 8 7 8 8 7 7 8 7 7 8 7 7 6 6 4 4 4 4 4 6 4 4 6 5 7
12 11 13 13 13 12 9 9 9 11 10 10 9 9 9 8 7 7 7 6 5 5 5 6 6 6 7 7 7 7 7 7 7 7 7 7 7 7 7 7 8 9 9 9 8 9 9 9 7 8 8 7 7 7 6 7 6 6 6 6 5 6
12 12 11 13 12 11 11 8 9 11 10 10 11 9 10 10 9 8 7 7 6 6 6 6 6 6 6 6 6 6 7 7 7 7 7 6 6 7 7 7 7 7 8 8 8 8 8 9 9 8 9 7 7 7 7 7 6 6 6 6 5 4
12 12 11 13 13 12 9 9 9 9 9 8 9 10 10 9 8 8 7 7 7 7 7 7 6 7 6 7 7 7 7 6 6 6 7 7 7 7 7 7 8 8 8 9 8 9 9 9 9 8 7 7 7 7 7 6 6 6 5 4 5 4
12 10 10 12 13 10 8 8 9 9 9 9 9 8 7 8 7 6 6 7 7 7 7 7 7 7 6 7 6 7 7 8 7 8 8 8 8 7 8 8 8 9 9 8 9 10 10 10 9 9 8 8 8 7 7 6 6 6 6 6 6 7
12 11 11 12 12 12 8 8 7 8 8 8 7 7 6 6 6 7 6 7 6 6 7 7 7 6 7 7 8 8 8 8 7 8 8 7 7 8 8 8 8 8 8 8 9 9 9 10 10 11 10 8 8 8 7 7 6 6 6 6 6 7
11 10 10 12 12 10 8 8 10 10 9 9 8 7 6 5 5 6 7 7 7 7 7 7 7 7 7 8 8 9 8 8 8 8 8 8 8 8 8 8 8 8 9 6 9 10 9 10 10 11 10 9 9 8 7 6 6 6 6 6 6 6
10 10 10 11 10 9 8 9 9 9 9 9 9 10 8 9 8 7 7 7 7 7 8 7 7 7 8 8 8 8 9 8 8 8 8 8 8 8 8 8 8 9 9 8 9 9 8 9 9 9 9 10 9 7 7 6 6 6 6 6 6 6
Wind_Direction
162 163 165 162 158 157 150 144 144 141 137 130 124 125 124 125 126 119 116 103 110 105 105 102 97 87 100 79 66 75 69 70 66 60 44 49 74 83 84 85 80 66 34 23 18 343 26 21 31 63 94 88 190 237 16 335 337 341 340 354 318 335
163 165 166 162 161 158 154 153 150 146 143 134 132 133 133 126 118 118 107 122 112 114 112 109 103 105 96 99 96 71 72 61 48 40 19 23 48 64 70 73 77 70 60 32 316 302 83 119 96 39 71 182 197 45 34 344 334 344 344 348 327 34
165 164 165 162 160 157 151 147 149 145 136 135 134 132 130 122 114 104 98 98 103 103 118 112 109 81 84 78 60 53 51 52 43 28 17 6 31 54 62 68 69 76 66 209 205 76 68 53 68 104 96 51 50 49 44 34 13 7 3 16 337 32
165 165 166 165 160 151 153 149 154 148 139 139 134 134 128 124 114 90 92 77 92 108 100 112 77 74 86 89 89 74 51 52 49 41 7 342 23 57 84 97 82 86 170 105 72 70 62 58 48 41 42 39 42 44 48 45 38 35 20 28 27 5
167 167 168 163 157 152 148 154 157 145 145 141 141 139 135 130 124 117 77 42 48 67 55 58 56 78 75 77 70 61 60 45 38 53 14 35 3 45 50 82 103 103 70 67 62 53 38 54 52 47 48 40 38 34 38 45 43 33 39 30 34 8
166 168 169 164 160 155 153 153 151 145 152 149 147 144 138 137 138 133 121 337 300 56 29 47 51 58 69 67 58 56 58 48 39 34 34 56 48 19 71 79 77 73 70 70 68 57 54 44 58 53 49 46 39 36 29 34 36 34 35 33 33 28
168 170 168 163 160 163 155 155 151 159 159 155 156 148 145 145 130 117 78 83 103 113 106 102 72 58 64 56 58 51 48 55 54 44 352 32 63 45 55 73 78 79 77 71 63 64 67 67 45 45 49 47 40 40 30 30 34 33 42 48 48 41
168 172 164 165 162 162 161 151 147 160 169 160 160 153 146 144 155 115 110 123 117 124 110 100 82 75 70 67 65 55 57 65 72 50 21 16 45 63 64 69 76 78 74 70 73 69 67 63 56 40 50 45 46 42 37 38 45 45 56 57 55 48
172 169 167 165 164 165 160 148 158 172 170 165 159 152 149 154 160 122 130 117 123 111 91 89 93 87 82 68 74 72 74 71 63 48 18 59 48 64 67 65 68 74 79 82 83 75 71 66 60 52 45 53 46 46 47 51 52 57 59 72 70 52
174 171 166 168 168 165 164 158 169 175 168 167 159 157 164 151 138 133 124 98 87 109 98 108 100 100 90 86 91 102 83 70 67 54 41 64 58 50 63 73 75 73 78 78 73 67 62 66 62 52 44 59 55 55 56 56 55 58 67 74 69 64
176 174 168 173 170 165 164 165 169 169 171 168 159 163 157 130 122 127 121 122 129 130 130 113 108 106 106 111 106 90 82 78 68 54 53 60 44 50 55 53 49 52 58 63 65 58 53 64 58 62 55 60 62 65 63 61 60 59 61 59 59 62
171 173 172 172 167 165 165 163 160 159 172 155 156 155 146 133 128 117 120 127 133 127 123 119 112 112 102 106 106 90 81 81 72 63 62 62 52 53 65 66 61 60 49 51 62 60 56 59 62 62 68 69 69 69 65 61 60 57 57 56 55 52
175 176 183 173 167 163 158 160 160 161 159 156 150 143 135 130 125 124 135 136 135 130 128 121 116 102 106 108 109 104 87 79 80 72 65 58 69 69 79 80 72 61 54 57 58 59 62 70 73 68 67 69 71 68 64 65 61 58 56 55 53 53
185 183 178 173 167 163 156 149 144 146 143 145 143 137 130 130 131 136 139 131 126 119 123 124 123 116 111 111 110 104 91 82 56 56 48 43 58 44 58 60 55 61 49 48 54 50 60 67 71 76 70 68 66 64 65 65 62 61 58 55 53 50
181 176 171 171 167 157 146 140 140 138 142 140 135 134 135 135 141 143 136 114 115 112 120 125 121 118 114 114 112 104 89 76 67 59 61 51 56 61 58 52 34 46 55 50 54 52 58 69 76 72 69 68 69 68 66 62 59 57 58 56 52 49
162 166 168 164 158 144 135 135 134 136 135 134 131 134 136 138 141 132 120 115 115 114 121 121 120 121 120 115 104 92 80 69 57 69 60 56 52 63 60 59 44 27 40 45 50 68 70 83 80 75 68 68 66 64 64 61 57 57 53 54 52 50
160 159 163 154 141 129 129 129 129 127 124 129 132 131 133 137 132 122 121 119 118 118 119 103 105 104 102 106 100 89 76 64 49 61 64 58 63 56 64 70 59 42 29 43 51 77 84 90 85 78 72 69 64 63 61 57 57 59 58 57 55 53
151 155 154 139 127 122 125 123 120 120 126 127 127 129 130 128 121 121 123 121 122 110 100 103 101 99 93 89 89 91 85 68 73 70 72 70 69 66 63 65 73 50 34 27 46 68 95 96 95 87 77 70 67 64 64 61 60 59 59 58 56 54
150 149 134 120 118 121 121 117 116 123 127 124 119 117 124 121 122 124 121 119 107 102 101 99 100 100 104 103 101 98 95 81 83 82 85 89 84 72 70 65 68 70 55 45 47 57 92 106 100 94 84 76 73 68 67 64 63 62 59 58 58 56
140 126 123 133 134 131 131 131 130 124 117 117 116 118 119 125 122 111 105 103 101 101 101 97 100 102 100 99 101 94 95 92 82 71 63 59 56 59 60 68 60 51 61 72 55 72 109 118 103 95 94 86 79 79 72 69 65 60 60 56 55 53
107 117 128 115 121 137 139 139 137 131 127 128 124 119 116 104 99 101 99 95 94 94 99 98 90 96 103 104 100 99 88 74 72 68 68 64 62 70 66 70 69 50 35 53 52 45 67 134 121 108 102 98 95 86 82 73 65 61 56 54 54 55
138 146 147 150 158 166 159 156 148 142 133 132 132 126 118 105 101 93 84 83 83 80 82 83 81 78 86 90 97 88 77 71 68 73 72 70 68 73 69 65 65 71 44 49 54 23 27 223 171 155 152 141 127 103 82 75 65 57 55 55 54 55
153 161 157 161 164 169 164 151 141 139 135 115 51 78 102 99 97 90 78 76 73 71 73 78 78 75 72 69 81 86 79 73 66 75 83 75 72 69 58 59 52 74 77 58 62 43 34 335 217 146 151 167 154 158 146 98 81 65 59 56 55 54
139 161 171 169 164 154 149 138 131 128 111 118 125 107 96 92 91 88 74 69 69 71 76 85 84 90 86 81 80 87 87 78 73 62 69 79 70 67 62 64 58 57 57 83 53 41 28 32 19 188 177 265 122 228 144 84 80 74 69 59 55 57
161 175 168 160 149 132 124 107 93 84 99 99 113 126 113 91 81 88 91 70 72 75 84 86 80 82 90 86 83 83 85 82 78 68 70 73 67 58 59 59 55 55 54 93 95 75 41 35 44 18 357 167 160 107 41 94 124 76 48 59 54 53
171 166 158 153 142 140 144 142 134 131 134 139 138 143 133 130 126 103 95 97 84 80 83 80 84 89 89 89 84 83 85 89 81 73 68 71 72 70 59 64 54 70 75 75 108 102 82 49 45 43 47 47 17 42 101 101 228 114 120 73 69 54
160 157 153 153 153 153 154 153 150 144 140 146 137 89 84 95 108 103 104 97 92 81 84 93 89 89 89 91 90 87 85 83 82 81 77 75 71 67 67 60 63 69 66 65 107 104 97 96 74 53 51 50 53 48 31 358 78 148 153 136 62 48
158 155 157 159 163 162 156 157 136 111 119 129 127 128 119 102 97 111 105 98 97 88 85 88 94 92 95 94 92 88 86 84 83 79 79 75 74 73 78 70 68 72 68 61 63 86 86 68 82 80 61 71 71 63 56 52 27 37 45 116 73 91
158 156 159 162 165 161 147 121 132 143 136 113 121 121 118 114 110 107 102 97 95 96 91 85 88 92 90 90 89 88 83 83 83 83 83 82 77 76 76 80 76 72 70 66 63 67 80 74 76 91 102 85 82 79 74 66 60 39 42 51 68 35
151 154 156 160 167 157 132 134 141 130 125 136 128 124 124 122 119 117 107 106 108 109 108 100 90 88 90 90 90 89 86 84 84 83 81 84 87 84 82 79 76 78 78 78 68 68 73 78 74 68 65 71 77 90 86 79 53 51 61 50 49 23
154 156 159 163 167 154 134 136 133 138 141 142 142 136 130 127 127 124 123 123 117 112 109 106 101 91 92 97 93 89 89 87 86 86 88 91 90 93 90 88 84 79 74 77 77 77 78 75 75 71 66 63 65 59 58 57 43 42 42 35 28 29
161 160 158 159 158 153 143 138 139 141 140 147 147 145 138 135 140 137 136 130 126 119 114 109 104 102 97 100 99 94 95 94 91 91 89 93 96 96 93 89 85 83 82 79 80 79 79 79 76 76 68 67 67 64 60 57 53 43 42 39 30 18
163 165 160 156 157 153 140 141 138 140 139 142 142 139 138 137 142 143 143 140 137 129 127 119 113 111 110 112 111 109 107 103 98 95 100 98 95 93 91 90 89 86 82 78 76 77 76 70 69 71 74 69 68 65 63 59 51 49 45 41 26 13
165 163 160 156 151 144 136 142 155 142 143 141 136 133 132 137 141 140 144 138 137 136 129 123 123 118 123 119 109 106 103 100 101 105 102 97 97 95 96 97 93 91 88 85 83 80 78 75 71 71 72 73 67 67 66 56 54 49 42 36 29 17
163 166 162 159 147 146 153 161 135 131 134 135 130 126 128 133 138 139 133 130 129 126 123 124 122 120 123 116 111 109 108 110 113 109 104 102 100 98 97 99 96 94 90 86 83 80 77 75 72 69 68 70 73 67 63 58 55 53 51 46 37 21
155 165 165 160 158 154 150 147 142 135 138 131 129 125 121 127 131 131 130 131 127 121 120 121 119 124 122 122 117 113 113 113 113 110 107 106 107 106 106 105 102 98 94 90 89 85 84 78 74 70 69 70 71 66 62 60 59 58 54 48 44 37
144 170 153 156 153 153 142 136 135 138 136 135 139 142 140 138 131 124 124 125 124 122 121 120 122 121 122 119 119 119 119 119 115 112 109 109 112 111 109 105 104 102 96 93 88 84 81 79 77 71 70 67 70 71 66 64 62 59 53 49 47 43